[[{"header":{"parameterUnit":"m.s-1","parameterCategory":1,"la1":30.2991,"la2":30.254,"lo1":-89.0895,"lo2":-89.0444,"dy":0.0017,"dx":0.0017,"nx":28,"ny":28,"refTime":"2026-01-29T09:00:00:Z","depth":0,"parameterNumber":2,"parameterNumberName":"U-component_of_WINDS"},"data":[0,0,0,0,0,0,0,0,0,0,0,0,0,0,0,0,0,0,0,0,0,0,0,0,0,0,0,0,0,0,0,0,0,0,0,0,0,0,0,0,0,0,0,0,0,0,0,0,0,0,0,0,0,0,0,0,0,0,-2.4246,-2.4246,0,-2.4257,-2.4258,-2.4258,-2.4193,-2.4192,-2.419,-2.4188,-2.4201,-2.4203,-2.4205,0,0,0,0,0,0,0,0,0,0,0,0,0,-2.4171,-2.4173,-2.4246,-2.4246,-2.4246,-2.4257,-2.4258,-2.4258,-2.4194,-2.4192,-2.4189,-2.4187,-2.42,-2.4203,-2.4205,0,0,0,0,0,0,0,0,0,0,0,0,0,-2.4195,-2.4173,-2.4246,-2.4216,-2.4213,-2.4257,-2.4258,-2.4258,-2.4194,-2.4192,-2.4189,-2.4186,-2.42,-2.4203,-2.4206,-2.428,0,0,-2.4215,-2.4216,0,0,0,0,0,0,0,0,-2.4194,-2.4198,-2.422,-2.4218,-2.4215,-2.4221,-2.4236,-2.4265,-2.4195,-2.4202,-2.4188,-2.4185,-2.421,-2.4212,-2.422,-2.428,-2.4281,-2.4215,-2.4217,-2.4218,-2.4219,0,0,0,0,0,0,0,-2.4192,-2.4197,-2.4251,-2.422,-2.4217,-2.4202,-2.4203,-2.4241,-2.4221,-2.4201,-2.4196,-2.4198,-2.4208,-2.4217,-2.422,-2.4281,-2.4215,-2.4218,-2.422,-2.4221,-2.4404,-2.4407,0,0,0,0,0,0,-2.4194,-2.4196,-2.425,-2.4251,-2.4197,-2.4206,-2.4206,-2.4222,-2.4221,-2.4218,-2.4201,-2.4195,-2.4214,-2.4217,-2.422,-2.4307,-2.4218,-2.4221,-2.4223,-2.4401,-2.4404,-2.4408,0,0,0,0,0,0,-2.4193,-2.42,-2.425,-2.4222,-2.4227,-2.421,-2.4228,-2.4224,-2.4233,-2.422,-2.4217,-2.4214,-2.4212,-2.4216,-2.4266,-2.4307,-2.4223,-2.4226,-2.4397,-2.4402,-2.4406,-2.4482,0,0,0,0,0,0,-2.4191,-2.42,-2.4227,-2.4223,-2.4229,-2.4294,-2.4231,-2.4226,-2.4238,-2.4231,-2.4232,-2.4229,-2.421,-2.4261,-2.4269,-2.431,-2.4228,-2.4393,-2.4399,-2.4405,-2.4476,-2.4488,-2.4499,0,0,0,0,0,-2.4189,-2.4248,-2.4229,-2.4236,-2.4263,-2.4297,-2.43,-2.4276,-2.4242,-2.427,-2.4262,-2.4229,-2.4301,-2.4267,-2.4275,-2.4317,-2.4391,-2.4398,-2.4404,-2.447,-2.4486,-2.4499,0,0,0,0,0,0,-2.4257,-2.4247,-2.4225,-2.4285,-2.4293,-2.4286,-2.432,-2.4294,-2.4311,-2.4304,-2.4274,-2.4274,-2.4329,-2.4328,-2.429,-2.4389,-2.434,-2.4349,-2.4388,-2.4403,-2.4414,-2.4413,-2.423,0,0,0,0,0,-2.4279,-2.4307,-2.4297,-2.4351,-2.4356,-2.4338,-2.4351,-2.4332,-2.4339,-2.4341,-2.4337,-2.4345,-2.4369,-2.4386,-2.4408,-2.4476,-2.4475,-2.4509,-2.4521,-2.4531,-2.4538,-2.4575,-2.459,-2.443,-2.443,-2.443,0,0,-2.4325,-2.4323,-2.4342,-2.4365,-2.4368,-2.4398,-2.434,-2.4374,-2.4396,-2.4347,-2.4393,-2.4391,-2.4397,-2.4457,-2.4482,-2.4457,-2.4582,-2.4539,-2.4547,-2.4549,-2.4583,-2.4598,-2.4612,-2.4434,-2.4433,-2.4433,0,0,-2.4424,-2.4425,-2.447,-2.4475,-2.4481,-2.4468,-2.448,-2.4477,-2.4474,-2.452,-2.4483,-2.451,-2.4552,-2.4559,-2.4568,-2.4671,-2.4642,-2.4679,-2.4741,-2.4777,-2.479,-2.4801,-2.4837,-2.4851,-2.4687,-2.4687,-2.4687,0,-2.448,-2.4523,-2.4497,-2.4534,-2.4545,-2.4501,-2.4547,-2.4553,-2.4566,-2.4575,-2.4547,-2.46,-2.4602,-2.4662,-2.4688,-2.4696,-2.4708,-2.4678,-2.479,-2.4801,-2.481,-2.4845,-2.4859,-2.4692,-2.4691,-2.4691,-2.469,0,-2.4592,-2.4623,-2.4659,-2.4672,-2.4688,-2.4729,-2.471,-2.4729,-2.4709,-2.47,-2.4749,-2.4749,-2.4771,-2.4784,-2.4765,-2.4842,-2.4826,-2.4795,-2.4744,-2.4831,-2.4863,-2.4876,-2.4698,-2.4697,-2.4695,-2.4694,0,0,-2.4733,-2.4732,-2.4746,-2.4751,-2.4755,-2.4779,-2.4819,-2.484,-2.4857,-2.4868,-2.4901,-2.4939,-2.491,-2.492,-2.4902,-2.4934,-2.5016,-2.4898,-2.4898,-2.492,-2.5101,-2.5124,-2.514,-2.4997,-2.4999,-2.5001,-2.51,0,-2.4829,-2.4896,-2.4874,-2.4943,-2.4971,-2.4932,-2.4966,-2.4973,-2.4967,-2.499,-2.4983,-2.5011,-2.497,-2.4976,-2.5006,-2.4999,-2.5052,-2.4992,-2.5027,-2.5029,-2.5026,-2.5157,-2.5181,-2.5275,-2.5113,-2.5115,-2.5117,0,-2.495,-2.4965,-2.5037,-2.5037,-2.5048,-2.508,-2.5097,-2.5121,-2.5128,-2.5121,-2.5134,-2.5109,-2.5149,-2.51,-2.5155,-2.5115,-2.5129,-2.5128,-2.5131,-2.5133,-2.5077,-2.5162,-2.5304,-2.5318,-2.5136,-2.5135,-2.5133,0,-2.5045,-2.5084,-2.5132,-2.5138,-2.5139,-2.5163,-2.5165,-2.5169,-2.5184,-2.52,-2.5209,-2.523,-2.5241,-2.5258,-2.5241,-2.5206,-2.5299,-2.5248,-2.5294,-2.5295,-2.5315,-2.5313,-2.5461,-2.5325,-2.5325,-2.5324,-2.5324,0,-2.5154,-2.5199,-2.5174,-2.5204,-2.5254,-2.5229,-2.5279,-2.5277,-2.5282,-2.531,-2.5278,-2.5306,-2.5281,-2.5307,-2.5294,-2.5342,-2.5347,-2.5343,-2.5339,-2.5345,-2.5346,-2.5353,-2.5346,-2.5328,-2.5327,-2.5327,-2.5326,0,-2.5268,-2.5253,-2.5303,-2.53,-2.5301,-2.5338,-2.5336,-2.5364,-2.5355,-2.5392,-2.5399,-2.5387,-2.5416,-2.54,-2.543,-2.5421,-2.5483,-2.5471,-2.5481,-2.5477,-2.5524,-2.552,-2.5681,-2.5701,-2.5553,-2.5554,-2.5555,0,-2.5338,-2.5372,-2.5373,-2.539,-2.5394,-2.5422,-2.5436,-2.5414,-2.5431,-2.5443,-2.5469,-2.5495,-2.5515,-2.5563,-2.5557,-2.558,-2.5568,-2.5622,-2.5571,-2.5577,-2.5568,-2.5566,-2.5569,-2.5632,-2.5634,-2.5636,-2.5637,0,-2.5464,-2.5456,-2.5477,-2.5498,-2.5516,-2.5531,-2.5543,-2.5559,-2.5537,-2.5558,-2.5587,-2.5602,-2.5633,-2.566,-2.568,-2.5683,-2.5657,-2.5653,-2.5665,-2.5672,-2.5676,-2.5674,-2.5508,-2.5649,-2.5648,-2.5647,-2.5646,-2.5646,-2.5558,-2.5586,-2.5592,-2.5618,-2.5625,-2.5638,-2.5663,-2.5659,-2.5683,-2.5706,-2.5692,-2.5726,-2.5734,-2.5759,-2.5765,-2.5792,-2.577,-2.5788,-2.5792,-2.5796,-2.5803,-2.5673,-2.5796,-2.5795,-2.5795,-2.5795,-2.5794,0,-2.5682,-2.5684,-2.5708,-2.5726,-2.5747,-2.5721,-2.5734,-2.5753,-2.5784,-2.5793,-2.5813,-2.5848,-2.5874,-2.587,-2.5894,-2.5917,-2.5906,-2.5924,-2.5922,-2.5923,-2.5821,-2.5808,-2.5933,-2.5933,-2.5933,-2.5933,-2.5933,-2.5933,-2.5749,-2.5796,-2.5788,-2.5839,-2.5841,-2.5874,-2.5883,-2.5895,-2.5902,-2.5942,-2.5964,-2.5961,-2.5966,-2.599,-2.6013,-2.6012,-2.6022,-2.6045,-2.6039,-2.5943,-2.593,-2.5917,-2.5904,-2.6047,-2.6047,-2.6138,-2.6139,-2.614]},{"header":{"parameterUnit":"m.s-1","parameterCategory":1,"la1":30.2991,"la2":30.254,"lo1":-89.0895,"lo2":-89.0444,"dy":0.0017,"dx":0.0017,"nx":28,"ny":28,"refTime":"2026-01-29T09:00:00:Z","depth":0,"parameterNumber":3,"parameterNumberName":"V-component_of_WINDS"},"data":[0,0,0,0,0,0,0,0,0,0,0,0,0,0,0,0,0,0,0,0,0,0,0,0,0,0,0,0,0,0,0,0,0,0,0,0,0,0,0,0,0,0,0,0,0,0,0,0,0,0,0,0,0,0,0,0,0,0,1.3392,1.3392,0,1.3375,1.3375,1.3375,1.3404,1.3405,1.3406,1.3407,1.3386,1.3385,1.3384,0,0,0,0,0,0,0,0,0,0,0,0,0,1.3448,1.3447,1.3392,1.3392,1.3392,1.3375,1.3375,1.3375,1.3404,1.3405,1.3406,1.3407,1.3387,1.3385,1.3383,0,0,0,0,0,0,0,0,0,0,0,0,0,1.3427,1.3447,1.3392,1.3404,1.3405,1.3375,1.3375,1.3375,1.3403,1.3405,1.3406,1.3408,1.3387,1.3385,1.3383,1.334,0,0,1.3376,1.3376,0,0,0,0,0,0,0,0,1.3428,1.3425,1.3403,1.3404,1.3404,1.3393,1.3388,1.3363,1.3403,1.3404,1.3407,1.3408,1.3387,1.3385,1.3379,1.3339,1.3338,1.3376,1.3375,1.3374,1.3373,0,0,0,0,0,0,0,1.343,1.3426,1.3386,1.3402,1.3403,1.341,1.3409,1.3383,1.3387,1.3404,1.3406,1.3404,1.3388,1.3381,1.3378,1.3338,1.3376,1.3374,1.3373,1.3372,1.3263,1.3262,0,0,0,0,0,0,1.343,1.3427,1.3386,1.3385,1.342,1.3408,1.3406,1.3395,1.3388,1.3388,1.3403,1.3405,1.3384,1.3381,1.3378,1.3327,1.3374,1.3372,1.3371,1.3265,1.3263,1.3261,0,0,0,0,0,0,1.3431,1.3426,1.3387,1.3407,1.3402,1.3405,1.3393,1.3394,1.3387,1.3387,1.3388,1.3394,1.3385,1.3381,1.335,1.3327,1.3371,1.3369,1.3267,1.3264,1.3262,1.3226,0,0,0,0,0,0,1.3432,1.3426,1.341,1.3406,1.3401,1.3359,1.3391,1.3393,1.3383,1.3387,1.3379,1.3379,1.3386,1.3353,1.3348,1.3325,1.3367,1.3269,1.3266,1.3263,1.3229,1.3223,1.3217,0,0,0,0,0,1.3434,1.34,1.3409,1.3404,1.3381,1.3358,1.3355,1.3364,1.3382,1.3365,1.3365,1.338,1.3331,1.3349,1.3344,1.332,1.327,1.3267,1.3263,1.3232,1.3224,1.3217,0,0,0,0,0,0,1.3399,1.3399,1.341,1.3373,1.3365,1.3363,1.3342,1.3355,1.3341,1.3345,1.3355,1.3353,1.332,1.3317,1.3338,1.3279,1.3303,1.3299,1.3282,1.3274,1.3268,1.3269,1.3365,0,0,0,0,0,1.3388,1.337,1.337,1.3337,1.3333,1.3339,1.3329,1.3336,1.3329,1.3325,1.3323,1.3315,1.3298,1.3286,1.327,1.3229,1.3228,1.321,1.3204,1.3199,1.3195,1.3174,1.3166,1.325,1.325,1.325,0,0,1.3362,1.336,1.3348,1.333,1.3326,1.3306,1.3336,1.3314,1.3299,1.3322,1.3293,1.3291,1.3282,1.3246,1.323,1.3243,1.3172,1.3195,1.3191,1.3189,1.3169,1.3162,1.3155,1.3247,1.3248,1.3248,0,0,1.3307,1.3304,1.3276,1.3272,1.3264,1.3268,1.3262,1.3258,1.3258,1.3229,1.3246,1.3229,1.3199,1.3193,1.3185,1.3129,1.3142,1.3124,1.3092,1.3072,1.3065,1.3059,1.3039,1.3032,1.312,1.3119,1.3119,0,1.3276,1.3249,1.3261,1.3238,1.323,1.3251,1.3224,1.3218,1.3206,1.3199,1.3214,1.3178,1.3173,1.3137,1.3123,1.3117,1.3109,1.3124,1.3065,1.3059,1.3054,1.3035,1.3028,1.3117,1.3118,1.3118,1.3118,0,1.3212,1.3192,1.3171,1.316,1.315,1.3125,1.3133,1.3121,1.313,1.3132,1.3103,1.3099,1.3083,1.3075,1.3083,1.304,1.3048,1.3064,1.3089,1.3044,1.3026,1.3019,1.3114,1.3115,1.3116,1.3116,0,0,1.3132,1.313,1.3121,1.3117,1.3112,1.3097,1.3073,1.3059,1.3049,1.304,1.302,1.2996,1.3011,1.3002,1.301,1.2992,1.2949,1.301,1.301,1.2999,1.2901,1.289,1.2881,1.2958,1.2957,1.2955,1.2902,0,1.3077,1.3037,1.3048,1.3008,1.299,1.3011,1.2991,1.2985,1.2987,1.2972,1.2975,1.2957,1.2978,1.2973,1.2957,1.2958,1.2929,1.2962,1.2939,1.2938,1.294,1.2872,1.2859,1.2809,1.2896,1.2894,1.2894,0,1.3007,1.2997,1.2956,1.2955,1.2948,1.2929,1.2918,1.2904,1.2898,1.2901,1.2893,1.2904,1.2881,1.2907,1.2875,1.2897,1.2889,1.2888,1.2886,1.2884,1.2913,1.2867,1.2793,1.2785,1.2883,1.2884,1.2885,0,1.2953,1.2929,1.2902,1.2898,1.2896,1.2882,1.2881,1.2877,1.2868,1.2858,1.2852,1.2839,1.2832,1.2821,1.2829,1.2847,1.2796,1.2823,1.2797,1.2797,1.2785,1.2785,1.2707,1.278,1.278,1.278,1.278,0,1.289,1.2864,1.2878,1.2861,1.2833,1.2846,1.2817,1.2818,1.2814,1.2798,1.2815,1.2798,1.281,1.2795,1.2801,1.2774,1.277,1.2772,1.2773,1.277,1.277,1.2764,1.2768,1.2778,1.2779,1.2779,1.2779,0,1.2825,1.2833,1.2805,1.2806,1.2806,1.2785,1.2785,1.277,1.2774,1.2753,1.2748,1.2755,1.2738,1.2745,1.2727,1.2731,1.2696,1.2703,1.2698,1.27,1.2674,1.2677,1.259,1.2579,1.2659,1.2658,1.2657,0,1.2784,1.2765,1.2764,1.2755,1.2753,1.2737,1.2729,1.2741,1.2732,1.2725,1.271,1.2695,1.2684,1.2656,1.2659,1.2645,1.2651,1.2622,1.2649,1.2647,1.2651,1.2652,1.265,1.2616,1.2615,1.2614,1.2614,0,1.271,1.2716,1.2704,1.2694,1.2684,1.2676,1.2669,1.266,1.2673,1.2661,1.2645,1.2636,1.2619,1.2604,1.2592,1.259,1.2604,1.2606,1.2599,1.2595,1.2593,1.2594,1.2683,1.2607,1.2608,1.2608,1.2609,1.2609,1.2656,1.264,1.2638,1.2624,1.2621,1.2615,1.2601,1.2604,1.2591,1.2579,1.2587,1.2568,1.2564,1.255,1.2547,1.2532,1.2543,1.2534,1.2531,1.2528,1.2525,1.2596,1.253,1.253,1.253,1.253,1.253,0,1.2584,1.2584,1.2571,1.2562,1.2552,1.2567,1.2561,1.2551,1.2534,1.253,1.2519,1.2501,1.2487,1.2489,1.2477,1.2464,1.247,1.246,1.2461,1.2461,1.2516,1.2523,1.2456,1.2456,1.2456,1.2456,1.2456,1.2456,1.2545,1.2519,1.2525,1.2498,1.2498,1.2481,1.2476,1.2471,1.2468,1.2447,1.2436,1.2438,1.2436,1.2424,1.2412,1.2413,1.2407,1.2395,1.2398,1.2449,1.2457,1.2464,1.247,1.2394,1.2394,1.2345,1.2344,1.2344]}]]